This is the latest recevied weather packets stored in our database for station/object SP4IM-13. If no packets are shown the sender has not sent any weather packets the latest 1 day(s).
| Time | Temp. | Humidity | Pressure | Rain* | Wind** | Luminosity | Snow |
|---|---|---|---|---|---|---|---|
| 1777953607 | 12.22° C | 79% | 1009 hPa | - | 0.89 m/s, 108° | - | - |
| 1777953004 | 11.67° C | 79% | 1009 hPa | - | 0.89 m/s, 113° | - | - |
| 1777952404 | 11.67° C | 79% | 1009 hPa | - | 0.89 m/s, 107° | - | - |
| 1777951805 | 11.67° C | 79% | 1009 hPa | - | 1.34 m/s, 113° | - | - |
| 1777951205 | 11.67° C | 79% | 1009 hPa | - | 0.89 m/s, 110° | - | - |
| 1777950607 | 11.67° C | 78% | 1009 hPa | - | 0.89 m/s, 102° | - | - |
| 1777950007 | 11.67° C | 78% | 1009 hPa | - | 0.45 m/s, 90° | - | - |
| 1777949403 | 12.78° C | 78% | 1009 hPa | - | 0.89 m/s, 105° | - | - |
| 1777948802 | 12.78° C | 78% | 1009 hPa | - | 0.89 m/s, 90° | - | - |
| 1777948202 | 12.78° C | 77% | 1009 hPa | - | 1.34 m/s, 99° | - | - |
| 1777947603 | 13.33° C | 77% | 1009 hPa | - | 0.89 m/s, 104° | - | - |
| 1777947002 | 13.33° C | 76% | 1009 hPa | - | 0.89 m/s, 105° | - | - |
| 1777946403 | 13.33° C | 76% | 1009 hPa | - | 0.89 m/s, 114° | - | - |
| 1777945803 | 13.33° C | 76% | 1009 hPa | - | 1.34 m/s, 113° | - | - |
| 1777945202 | 13.89° C | 75% | 1009 hPa | - | 1.34 m/s, 111° | - | - |
| 1777944602 | 13.89° C | 75% | 1009 hPa | - | 1.34 m/s, 113° | - | - |
| 1777944002 | 13.89° C | 75% | 1009 hPa | - | 1.34 m/s, 115° | - | - |
| 1777943402 | 13.89° C | 75% | 1009 hPa | - | 0.89 m/s, 110° | - | - |
| 1777942803 | 13.89° C | 74% | 1009 hPa | - | 1.34 m/s, 119° | - | - |
| 1777942202 | 13.89° C | 74% | 1009 hPa | - | 1.34 m/s, 112° | - | - |
| 1777941602 | 13.89° C | 73% | 1009 hPa | - | 0.89 m/s, 107° | - | - |
| 1777941002 | 14.44° C | 73% | 1009 hPa | - | 0.89 m/s, 115° | - | - |
| 1777940402 | 14.44° C | 72% | 1009 hPa | - | 0.89 m/s, 109° | - | - |
| 1777939802 | 14.44° C | 72% | 1009 hPa | - | 0.89 m/s, 112° | - | - |
| 1777939203 | 14.44° C | 71% | 1009 hPa | - | 1.34 m/s, 112° | - | - |
* Rain since midnight (hover to see other rain measurements)
** Current wind speed in m/s (hover to see current wind gust speed)